Regional Weather Roundup
Issued by NWS State College, PA

Home | Current Version | Previous Version | Text Only | Print | Product List | Glossary On
Versions: 1 2 3 4 5 6 7 8 9 10 11 12 13 14 15 16 17 18 19 20 21 22 23 24 25 26 27 28 29 30 31 32 33 34 35 36 37 38 39 40 41 42 43 44 45 46 47 48 49 50
000
ASUS41 KCTP 212010
RWRCTP

REGIONAL WEATHER ROUNDUP
NATIONAL WEATHER SERVICE STATE COLLEGE PA
300 PM EST SAT JAN 21 2017

Note: "fair" indicates few or no clouds below 12,000 feet with no
significant weather and/or obstructions to visibility.

* = STATION THAT DOES NOT REPORT PRECIPITATION /E.G. RAIN...SNOW...ETC/
    THUNDER OR FOG.

PAZ002>004-007>009-013>016-020>023-029>032-212100-
WESTERN PENNSYLVANIA

CITY           SKY/WX    TMP DP  RH WIND       PRES   REMARKS
ERIE           PTSUNNY   65  48  54 S14       29.66S
MEADVILLE      PTSUNNY   59  48  67 S13G20    29.68S
FRANKLIN*        N/A     59  52  77 S10       29.71S
NEW CASTLE     FAIR      62  51  67 SW6       29.69F
BEAVER COUNTY  MOSUNNY   63  50  63 SW9       29.69F
BUTLER*        CLOUDY    63  50  63 S9        29.73S
PITTSBURGH INT CLOUDY    64  50  60 S15G22    29.69F
PITTSBURGH     MOSUNNY   63  47  55 S13       29.70S
INDIANA*       MOSUNNY   64  48  55 SW10      29.74S
LATROBE        MOSUNNY   64  48  55 SW14      29.72F
WASHINGTON CO* CLOUDY    63  50  63 SW7       29.71S
$$

PAZ004>006-010>012-017>019-024>028-033>037-041-042-045-046-049>053-212100-
CENTRAL PENNSYLVANIA

CITY           SKY/WX    TMP DP  RH WIND       PRES   REMARKS
BRADFORD       MOSUNNY   57  50  77 S7        29.72F
DUBOIS         CLOUDY    62  47  57 S9        29.71F
CLEARFIELD     CLOUDY    50  49  96 NE5       29.73F
JOHNSTOWN      CLOUDY    60  45  57 SW7       29.73S
ALTOONA        CLOUDY    48  45  89 N6        29.75F FOG
STATE COLLEGE  CLOUDY    45  45 100 CALM      29.78F FOG
WILLIAMSPORT   CLOUDY    46  42  86 CALM      29.81S
SELINSGROVE    CLOUDY    43  42  97 S3        29.83S FOG
FT INDIANTOWN  CLOUDY    43  43 100 VRB5      29.83R FOG
CAPITAL CITY   FOG       46  43  89 CALM      29.83S VSB 1/2
HARRISBURG     FOG       45  45 100 CALM      29.82S VSB 1/4
YORK           CLOUDY    48  48 100 NW3       29.81F
$$

PAZ038>040-043-044-047-048-054-055-060>062-067>071-212100-
EASTERN PENNSYLVANIA

CITY           SKY/WX    TMP DP  RH WIND       PRES   REMARKS
SCRANTON       CLOUDY    47  45  93 W6        29.80R FOG
MOUNT POCONO   MOSUNNY   55  44  66 W7        29.78R
ALLENTOWN      FOG       48  44  86 W6        29.82S VSB 1
QUAKERTOWN*    CLOUDY    45  45 100 SW3       29.83S VSB 1/2
READING        FOG       46  46 100 SW3       29.83R VSB 1
LANCASTER      CLOUDY    45  45 100 W3        29.84R FOG
COATESVILLE    FOG       45  45 100 CALM      29.84R VSB 1/4
POTTSTOWN      CLOUDY    45  44  97 SW5       29.85R FOG
BLUE BELL      CLOUDY    45  45 100 CALM      29.83R
DOYLESTOWN     CLOUDY    46  45  96 S5        29.82S FOG
WILLOW GROVE   NOT AVBL
NORTH PHILA    CLOUDY    48  45  89 SW6       29.85S FOG
PHILADELPHIA   CLOUDY    46  45  96 SW5       29.84S FOG
$$



USA.gov is the U.S. government's official web portal to all federal, state and local government web resources and services.